Theta_e
317 315 315 314 314 314 311 311 310 311 311 311 312 310 309 308 303 307 306 306 304 301 299 301 303 305 307 308 307 306 305 304 303 302 303 303 303 302 301 299 298 298
315 313 311 313 312 310 311 312 310 311 309 309 310 308 305 303 303 305 305 304 303 300 299 299 300 302 304 305 304 304 302 302 299 300 300 299 298 297 296 296 295 294
313 313 313 313 312 310 310 310 311 310 309 307 305 304 304 304 303 303 304 304 302 300 298 297 298 299 300 300 300 300 298 295 294 294 293 293 293 292 291 292 290 290
313 313 313 313 312 310 309 309 308 306 304 303 303 303 303 301 302 301 301 299 300 297 296 297 297 296 296 296 295 294 294 292 291 290 289 289 289 288 287 286 286 285
311 311 312 312 311 310 308 308 306 305 305 304 301 300 299 299 299 298 298 296 297 295 296 296 295 294 293 293 293 290 289 287 288 289 287 286 286 286 285 284 283 283
309 310 310 310 308 308 307 307 306 305 303 301 301 299 300 299 297 295 294 293 292 293 293 293 293 291 290 289 288 288 287 286 286 287 286 286 284 284 284 283 283 283
306 307 307 307 306 307 307 306 304 302 302 301 298 298 296 295 294 293 293 292 291 291 292 291 290 288 287 287 287 286 286 285 286 286 285 283 283 283 282 283 283 283
304 305 306 305 305 305 304 302 300 300 297 296 297 293 294 293 292 291 291 291 291 290 289 288 288 288 287 288 287 286 284 284 284 285 284 283 283 283 283 283 283 283
301 301 302 303 302 301 299 298 297 295 295 296 294 292 291 292 291 290 290 291 290 289 289 288 288 287 286 287 286 286 285 284 284 284 284 284 283 283 283 282 283 283
299 299 300 300 299 298 297 295 294 294 294 294 293 292 291 289 290 290 290 290 289 288 288 287 287 286 286 286 286 285 285 285 284 284 284 284 283 283 283 283 282 282
296 297 297 297 296 295 293 293 293 293 293 292 291 290 290 289 288 289 289 289 289 288 288 287 287 286 286 285 285 285 285 284 284 284 283 283 283 283 283 282 282 282
295 295 295 294 293 292 292 292 292 292 292 291 291 290 289 289 289 288 289 288 288 288 287 287 286 286 286 285 285 284 284 284 284 283 283 283 282 282 282 282 282 282
293 293 293 292 292 292 291 292 292 291 292 291 290 290 289 288 288 288 288 288 287 287 286 286 285 285 285 284 284 284 284 284 283 283 283 282 282 282 282 282 282 282
291 291 292 292 291 291 292 291 291 291 291 290 289 289 289 288 288 287 286 287 286 286 285 285 285 284 284 284 284 284 284 283 283 283 282 282 282 282 282 281 281 281
291 291 291 291 290 291 290 290 290 290 289 289 288 288 288 287 287 286 285 285 284 284 284 284 285 284 284 284 284 284 284 283 283 282 282 281 281 281 281 281 281 281
290 290 290 290 290 290 290 289 289 288 287 287 287 286 286 285 285 285 284 284 283 283 284 285 285 285 285 287 286 284 283 283 282 282 282 281 281 280 280 280 280 280
290 290 290 290 290 289 288 287 286 286 286 285 285 284 284 284 284 283 283 283 283 283 284 285 285 286 288 289 289 287 283 282 281 281 281 281 280 280 280 280 280 280
290 289 289 289 288 287 286 286 285 285 285 284 283 283 283 283 283 282 282 282 282 283 284 284 285 289 290 289 288 287 285 282 281 281 281 280 280 280 280 279 279 279
289 288 288 287 287 286 285 284 284 283 283 282 282 282 282 282 282 282 281 281 282 282 283 284 285 290 289 288 287 287 285 283 281 281 280 280 280 280 280 279 279 279
288 288 287 286 284 284 283 283 283 283 282 282 281 281 281 281 281 281 280 280 281 281 282 283 284 288 289 287 286 286 285 283 280 280 280 280 280 279 279 279 279 279
286 286 285 284 283 282 282 282 282 281 281 281 281 281 280 280 280 280 280 279 280 281 282 283 284 288 288 287 286 285 284 282 280 280 280 279 279 279 279 279 279 279
285 284 284 283 282 282 282 282 281 281 280 280 280 279 279 279 278 279 279 278 279 280 281 282 285 288 287 286 285 285 283 280 279 279 279 279 279 279 279 279 279 279
284 284 283 282 282 282 281 281 281 280 280 280 279 279 279 278 278 278 278 278 278 279 280 281 282 285 286 285 284 284 281 279 279 279 279 278 278 278 279 279 279 279
284 284 283 282 282 282 281 281 280 280 279 279 279 278 278 277 277 277 276 276 277 277 278 279 279 283 285 284 283 282 280 279 279 278 278 278 278 278 278 279 279 279
283 283 283 282 281 281 281 280 280 279 278 278 278 278 277 276 276 276 275 275 275 276 278 278 279 282 285 284 283 282 280 279 278 278 278 278 277 277 278 278 278 279
282 282 282 281 281 280 280 279 279 278 277 277 277 277 276 276 275 275 274 274 274 275 275 276 277 279 282 284 282 282 281 279 278 278 277 277 277 277 276 277 278 277
Wind_Speed
9 7 9 9 8 8 9 9 7 9 8 8 9 7 8 6 6 5 5 5 5 7 6 6 5 5 6 5 6 6 6 6 5 4 5 6 5 5 5 5 5 3
9 8 7 7 6 6 7 9 9 10 9 9 7 7 5 7 6 6 7 7 6 7 6 6 5 5 5 6 6 7 5 6 5 2 5 6 5 6 6 6 5 4
8 8 9 10 9 9 9 8 8 8 8 7 7 7 7 7 8 5 6 7 8 7 6 6 6 5 6 6 6 6 6 6 6 5 7 6 5 6 4 4 5 5
9 10 10 9 9 9 8 8 6 6 6 7 7 7 8 7 7 7 6 7 8 7 6 6 7 6 6 6 7 7 7 6 5 7 8 6 5 5 4 5 6 6
9 9 8 8 8 8 9 9 9 8 9 8 8 8 8 8 8 7 7 6 7 7 7 7 6 6 7 7 8 8 6 7 5 7 8 7 4 5 4 7 7 6
6 7 8 8 8 9 8 9 10 10 9 9 9 8 8 8 8 8 8 8 6 7 7 6 7 6 6 7 7 7 7 7 5 7 8 7 5 4 3 3 5 6
6 6 7 6 8 9 10 9 8 8 9 9 9 8 9 9 8 8 8 8 8 8 8 7 8 6 5 7 7 7 6 7 6 7 8 6 6 4 3 4 5 6
7 6 8 8 8 7 7 8 8 8 9 9 9 7 8 10 9 8 8 8 8 8 7 7 7 7 6 7 8 9 7 6 7 7 8 6 5 6 4 4 5 7
6 6 6 7 8 7 8 8 7 7 7 10 9 8 5 8 9 9 9 8 8 8 8 7 7 7 6 7 8 9 9 6 6 6 7 7 7 5 4 4 7 7
5 6 7 7 8 7 8 7 8 8 7 9 9 8 9 6 8 9 9 9 9 8 8 8 7 7 7 7 8 8 9 8 6 6 6 6 7 5 5 6 6 6
5 5 7 6 7 7 8 8 8 8 7 10 9 8 8 9 6 7 9 9 10 9 9 8 8 8 9 7 6 6 8 8 7 7 7 6 6 6 5 6 6 5
5 5 6 7 8 8 9 9 9 8 9 7 9 10 8 7 9 7 9 9 9 9 8 8 8 8 8 8 8 7 7 7 7 7 7 6 6 5 5 5 5 4
6 6 7 7 7 8 7 8 8 8 9 9 7 10 10 9 8 9 7 9 8 8 8 8 8 7 8 8 8 7 8 8 8 7 7 6 5 6 5 5 5 5
5 5 7 7 7 8 8 8 8 8 8 8 9 10 10 10 11 10 8 8 8 7 7 7 8 8 7 7 7 7 8 7 7 8 7 6 6 5 5 5 5 5
7 6 6 7 8 8 8 8 8 8 8 8 8 8 7 8 9 10 10 8 7 7 7 6 7 7 6 8 9 7 7 8 7 7 7 7 6 6 5 5 5 5
6 7 7 7 8 8 8 8 8 8 8 8 8 7 8 8 9 8 8 9 10 8 6 6 6 5 8 10 8 8 8 7 7 6 6 6 7 6 5 5 6 5
7 7 7 8 7 7 7 7 8 7 7 7 7 7 9 9 9 9 8 8 9 9 8 7 6 6 12 12 13 12 8 7 7 6 6 6 6 6 6 5 5 5
6 7 7 7 7 7 6 6 7 7 8 8 8 9 8 8 9 9 9 8 7 8 8 7 6 9 13 13 13 12 9 7 7 7 6 6 6 6 5 5 5 4
5 7 6 7 7 7 7 7 8 7 8 9 9 8 8 9 9 9 8 7 8 9 8 7 6 11 14 14 13 13 12 8 6 6 7 6 6 6 5 5 4 4
7 7 8 7 7 7 7 8 8 8 7 7 8 8 9 8 8 9 8 7 7 8 8 7 6 11 14 14 13 13 12 9 6 7 7 7 7 5 5 5 4 4
8 8 8 7 7 7 7 8 9 8 8 8 8 9 9 10 10 9 7 7 7 7 8 7 6 13 15 14 14 13 13 9 6 6 7 6 5 5 4 4 4 3
9 8 8 8 8 8 9 9 8 9 10 8 8 7 6 6 5 6 8 8 7 8 8 8 7 14 14 14 14 14 13 7 6 7 6 5 5 5 4 3 3 3
9 10 9 9 9 10 10 10 10 9 8 7 9 8 8 8 7 6 6 8 8 7 8 7 7 11 15 14 13 14 9 6 6 7 6 6 5 5 4 3 3 3
10 11 11 11 10 11 11 8 6 6 7 7 10 10 9 8 8 8 6 6 8 7 7 9 7 10 15 14 13 12 8 6 5 6 6 5 5 4 4 3 4 4
7 7 8 9 10 9 8 9 9 9 7 6 7 7 8 7 7 8 7 6 5 6 8 8 8 9 14 14 13 12 9 5 6 6 7 5 5 4 4 3 3 3
7 8 8 9 10 7 7 7 7 8 8 8 7 7 8 7 7 7 9 6 5 5 5 5 7 7 10 15 13 13 12 6 5 7 7 7 5 5 4 3 4 3
Wind_Direction
196 186 186 186 188 182 175 177 179 172 179 173 177 178 176 162 152 152 135 123 128 116 104 102 119 122 120 112 108 101 99 103 104 111 106 110 107 106 98 80 68 80
194 184 182 180 181 181 182 179 176 177 177 176 174 159 150 139 153 145 137 126 121 110 102 110 112 111 107 104 104 106 100 98 73 48 96 81 70 76 80 88 96 104
184 181 181 184 183 182 178 180 176 177 170 166 144 150 147 150 144 136 131 129 122 118 112 111 105 100 102 107 110 111 118 109 96 85 75 79 83 83 83 94 86 77
188 187 185 185 179 177 172 163 162 148 131 138 156 153 146 145 139 133 126 125 121 118 115 113 117 114 114 117 112 101 96 82 98 105 92 77 47 86 93 105 97 72
185 185 184 179 176 169 164 165 163 161 161 152 135 140 138 138 135 130 127 123 122 121 121 120 118 120 118 115 110 101 82 94 98 103 98 88 51 73 75 74 78 86
187 181 176 169 165 161 168 170 166 159 147 145 151 143 141 138 135 135 134 128 127 128 123 120 118 114 118 116 106 111 122 107 115 110 102 101 89 65 87 111 111 92
170 165 165 162 162 169 166 163 154 151 152 144 134 141 137 134 134 137 136 134 134 133 129 131 126 121 122 120 114 116 107 112 115 110 111 114 113 100 91 88 85 83
171 169 162 159 162 159 151 146 146 145 137 131 132 134 137 134 134 135 135 135 131 128 128 128 127 130 138 129 126 118 110 116 121 120 116 123 115 101 86 83 87 81
158 157 153 155 149 146 140 140 133 127 138 133 131 132 126 133 138 138 138 133 128 131 131 132 134 136 142 131 129 129 127 127 127 124 122 120 104 101 99 99 80 77
142 141 143 146 145 141 135 129 130 128 129 125 129 133 132 131 138 139 135 135 132 132 133 136 137 137 135 131 133 132 126 124 122 113 109 106 107 106 98 88 90 81
131 138 136 133 128 128 129 130 132 131 131 134 132 130 134 133 134 135 133 135 138 140 141 144 146 142 133 126 120 119 120 121 118 112 107 105 102 101 98 97 90 94
135 133 135 134 133 133 140 141 139 138 137 137 139 134 135 139 139 144 140 137 135 141 144 144 142 136 129 128 127 124 118 114 113 109 108 106 102 101 102 96 100 101
147 145 139 140 143 141 140 140 140 139 140 141 144 141 144 144 145 137 136 131 137 141 145 142 132 126 124 125 126 123 120 118 113 108 106 103 103 105 100 98 97 93
144 143 141 141 139 142 144 144 140 140 142 142 145 148 149 150 148 138 128 129 138 134 131 128 126 123 123 122 121 122 118 115 116 115 113 109 104 96 94 91 87 82
142 143 138 138 141 142 142 145 144 143 145 147 148 144 142 143 133 127 130 128 125 127 127 125 124 129 133 134 127 120 116 115 116 117 117 114 105 95 86 83 78 71
149 147 149 147 149 152 152 148 145 145 145 144 142 140 136 129 120 123 131 136 133 129 124 122 122 126 135 127 123 127 123 116 111 112 114 113 110 102 89 80 74 69
153 159 155 158 156 148 147 146 143 141 137 133 133 135 130 124 127 133 137 139 138 136 131 124 124 131 133 125 123 119 118 120 119 116 112 107 106 108 102 87 73 72
162 156 157 152 144 146 145 141 139 141 142 142 140 134 129 128 136 141 139 138 131 127 123 124 124 131 126 123 119 117 118 119 121 118 115 111 110 105 102 96 94 83
154 158 154 150 154 150 149 146 146 144 146 150 147 137 131 140 145 140 141 136 132 128 122 122 121 127 124 122 119 118 118 115 116 119 116 116 108 100 96 96 94 92
162 164 161 160 154 152 151 152 153 157 154 144 134 135 141 140 140 140 137 134 131 125 121 121 120 129 125 120 119 120 120 115 117 115 110 107 104 98 95 98 101 102
169 169 164 161 158 155 154 159 160 155 153 148 145 148 149 151 149 143 139 130 127 125 121 122 129 132 126 123 122 123 121 116 117 113 109 105 97 96 102 100 105 113
172 170 164 160 160 160 164 167 167 164 154 146 135 129 122 122 115 122 134 134 131 130 123 122 129 133 128 126 126 127 125 121 121 117 113 104 97 101 100 96 113 118
172 168 166 166 167 168 173 171 165 158 151 143 137 140 139 140 140 136 137 135 134 131 125 122 126 135 131 129 129 132 128 126 125 121 112 110 110 109 116 110 116 106
175 172 170 171 173 179 176 168 153 139 147 152 150 148 143 142 136 127 125 130 134 135 139 134 134 138 136 133 133 138 138 133 135 124 116 118 122 121 122 125 111 115
170 172 170 170 175 177 171 165 162 154 141 132 134 133 134 133 132 127 122 117 124 130 134 131 132 141 143 137 137 138 136 134 136 127 125 130 136 139 137 136 143 152
167 168 170 172 174 164 162 160 144 139 148 141 133 132 132 131 126 128 128 125 123 126 127 131 134 140 147 145 144 145 148 143 136 131 137 144 152 151 147 158 159 175